{"data":{"norad_id":67242,"epoch":"2026-05-24T20:08:39.456384Z","epoch_age_seconds":99363,"freshness":"FRESH","line1":"1 67242U 25311G   26144.83934556 -.00000097  00000+0  58072-4 0  9995","line2":"2 67242  50.0019 199.5063 0000993 245.6188 114.4581 13.29322649 20238","mean_motion":13.29322649,"eccentricity":9.93e-5,"inclination_deg":50.0019,"raan_deg":199.5063,"arg_perigee_deg":245.6188,"mean_anomaly_deg":114.4581,"bstar":5.8072e-5,"rev_number":2023,"period_min":108.32584557882,"perigee_km":1148.5717457295,"apogee_km":1150.0666985353,"semimajor_km":7527.4562221324,"source":"CELESTRAK","updated_at":"2026-05-25T13:38:06.822954Z"}}